Roma, Italy

05:34 AM CET del 03 Dicembre 2016 (GMT +0100)
Colosseo | | Change Station

Alt. 164 ft 41.90 °N, 12.48 °E | Updated 53 seconds ago

Scattered Clouds
Nubi sparse
47.3 °F
Sembra 47 °F
N
0.0
Vento Variabile Vento da ONO
Gusts 0.0 mph

Oggi
Massima -- | Minima -- °F
--% Possibilità di precip.
Ieri
Massima -- | Minima -- °F
Precip. -- in
Pressione 30.04 in
Visibilità 6.2 miglia
Nuvole Nubi sparse 3000 ft
Raffreddamento del vento 47 °F
Punto di rugiada 44 °F
Umidità 87%
Piovosità 0.00 in
Spessore del manto nevoso Non disponibile.
7:20 AM 4:39 PM
Luna crescente, 12% visible
METAR LIRA 030420Z 16002KT 9999 SCT030 09/05 Q1017
Pressione 30.04 in
Visibilità 6.2 miglia
Nuvole Nubi sparse 3000 ft
Raffreddamento del vento 47 °F
Punto di rugiada 44 °F
Umidità 87%
Piovosità 0.00 in
Spessore del manto nevoso Non disponibile.
7:20 AM 4:39 PM
Luna crescente, 12% visible
METAR LIRA 030420Z 16002KT 9999 SCT030 09/05 Q1017

10-Day Weather Forecast

×

Almanac

Astronomia

Dec. 03, 2016 Alba Tramonto
Ora attuale
Crepuscolo civile
Crepuscolo nautico
Crepuscolo astronomico
Luna
Estensione della luce visibile
Lunghezza del giorno
Tomorrow will be .
, % of the Moon is Illuminated

Gli estremi di oggi

Massime Regione Minime Regione

Community

WunderPhotos

Upload Photos

1,955,411 foto caricate!

WunderBlog® & News

Nearby

Qualità dell'aria

  Qualità dell'aria Indice AQ Inquinante
Not available.

Profondità neve

Stazione Profondità Altitudine

Attività sismica

Città  Distanza Mag. Data & Ora
Minimo Magnitudo Mostrato è 2.5.

Temperature delle acque costiere

Località Temperatura

Stations

Stazioni meteo nelle vicinanze

Ubicazione della stazione Temp. Raffreddamento del vento Punto di rugiada Umidità Vento Precip. Alt. Aggiornato Tipo